Hourly Data Report for June 16, 2021

OTTAWA INTL A
ONTARIO
Current Station Operator: NAVCAN

45°19'00.000" N
75°40'00.000" W
114.90 m
6106001
71628
YOW

Download Data

Hourly Data (June 2021)
Hourly Data Report for June 16, 2021
TIME
LST
Temp Definition
°C
Dew Point Definition
°C
Rel Hum Definition
%
Precip. Amount Definition
mm

Wind Dir Definition
10's deg

Wind Spd Definition
km/h
Visibility Definition
km
Stn Press Definition
kPa
Hmdx Definition


Wind Chill Definition


Weather Definition


00:00 14.1 3.2 48   35 16 24.1 99.83     LegendNANA
01:00 12.8 3.7 54   35 11 24.1 99.86     Clear
02:00 12.6 4.0 56   34 15 24.1 99.90     LegendNANA
03:00 11.6 4.4 61   34 17 24.1 99.93     LegendNANA
04:00 11.0 4.2 63   34 17 24.1 99.94     Clear
05:00 10.4 4.8 68   31 17 24.1 99.96     LegendNANA
06:00 12.0 4.6 61   33 20 24.1 99.98     LegendNANA
07:00 12.8 4.3 56   31 18 24.1 99.96     Clear
08:00 13.5 4.8 56   28 19 24.1 99.99     LegendNANA
09:00 14.4 5.1 53   29 21 24.1 99.96     LegendNANA
10:00 15.9 5.3 49   28 21 24.1 99.95     Clear
11:00 18.2 5.8 44   27 22 24.1 99.91     LegendNANA
12:00 17.5 5.1 44   28 24 24.1 99.89     LegendNANA
13:00 19.3 4.6 38   29 30 24.1 99.84     Mostly Cloudy
14:00 19.3 4.6 37   27 19 24.1 99.83     LegendNANA
15:00 20.5 4.6 35   31 26 24.1 99.80     LegendNANA
16:00 21.6 2.6 28   29 30 24.1 99.76     Mostly Cloudy
17:00 20.8 2.2 29   30 24 24.1 99.74     LegendNANA
18:00 20.7 2.6 30   29 22 24.1 99.74     LegendNANA
19:00 19.4 2.6 32   31 21 24.1 99.78     Mostly Cloudy
20:00 16.1 3.7 43   26 8 24.1 99.80     LegendNANA
21:00 14.4 3.9 49   27 13 24.1 99.87     LegendNANA
22:00 13.4 4.5 54   27 13 24.1 99.87     Clear
23:00 11.3 4.9 65   27 12 24.1 99.89     LegendNANA

Notes on Data Quality.

Legend

  • E = Estimated
  • M = Missing
  • NA = Not Available*
  • [empty] = Indicates an unobserved value
Date modified: